Location: Unspecified
(0.0000°N, 0.0000°E)
Time: 21:15:38
(UTC+00:00)

Explorer 7 - Pass Details

Date: 21 June 2025
Orbit: 444 x 569 km, 50.3° (Epoch: 12 July)

Event Time Altitude Azimuth Distance (km) Brightness Sun altitude
Rises 10:43:26 0° 220° (SW) 2,736 10.1 59.8°
Reaches altitude 10° 10:45:43 10° 222° (SW) 1,824 9.3 60.1°
Maximum altitude 10:49:52 72° 307° (NW) 566 8.0 60.8°
Drops below altitude 10° 10:53:51 10° 31° (NNE) 1,747 10.0 61.3°
Sets 10:56:00 0° 33° (NNE) 2,609 10.7 61.6°
